Regional Weather Roundup
Issued by NWS

Home | Current Version | Previous Version | Graphics & Text | Print | Product List | Glossary On
Versions: 1 2 3 4 5 6 7 8 9 10 11 12 13 14 15 16 17 18 19 20 21 22 23 24 25 26 27 28 29 30 31 32 33 34 35 36 37 38 39 40 41 42 43 44 45 46 47 48 49 50
000
ASUS43 KMKX 272121
RWRWI

WISCONSIN REGIONAL WEATHER ROUNDUP
NATIONAL WEATHER SERVICE MILWAUKEE/SULLIVAN WI
400 PM CDT THU JUL 27 2017

NOTE: "FAIR" INDICATES FEW OR NO CLOUDS BELOW 12,000 FEET WITH NO
SIGNIFICANT WEATHER AND/OR OBSTRUCTIONS TO VISIBILITY.

WIZ001-002-006>008-014>016-023>028-272200-
NORTHWEST WISCONSIN

CITY           SKY/WX    TMP DP  RH WIND       PRES   REMARKS
SUPERIOR ARPT  NOT AVBL
ASHLAND        SUNNY     79  62  56 NE8       30.08F HX  80
HAYWARD        MOSUNNY   81  55  40 N10       30.08F HX  81
SIREN          MOSUNNY   81  56  42 N5        30.07F HX  81
CUMBERLAND     MOSUNNY   79  55  44 NW3       30.07F
RICE LAKE      SUNNY     82  53  37 N6        30.08S HX  81
CHETEK         MOSUNNY   80  60  51 N5        30.06S HX  80
LADYSMITH      PTSUNNY   80  59  48 N7        30.08S HX  81
EAU CLAIRE     SUNNY     83  59  44 NW10      30.03F HX  83
MENOMONIE      PTSUNNY   81  59  46 N10       30.05S HX  82
NEW RICHMOND   MOSUNNY   81  56  42 N10       30.06F HX  81
OSCEOLA        SUNNY     83  56  39 W6        30.08F HX  82
$$

WIZ003>005-009-010-017-018-272200-
NORTH CENTRAL WISCONSIN

CITY           SKY/WX    TMP DP  RH WIND       PRES   REMARKS
MANITOWISH WTR CLOUDY    78  60  53 NE9       30.08S
ARBOR VITAE    CLOUDY    77  56  48 NE5       30.07S
WOODRUFF       CLOUDY    77  56  48 NE5       30.07S
RHINELANDER    CLOUDY    78  59  51 E7        30.08S
EAGLE RIVER    CLOUDY    75  54  48 NE5       30.08S
LAND O LAKES   CLOUDY    78  53  42 N9        30.10R
PHILLIPS       PTSUNNY   78  57  49 N5        30.06F
TOMAHAWK         N/A     75  58  55 CALM      30.06F
MEDFORD        CLOUDY    77  59  53 NE5       30.06F
MERRILL        MOSUNNY   79  57  47 CALM      30.05F HX  80
$$

WIZ029-030-035-036-043>047-272200-
CENTRAL WISCONSIN

CITY           SKY/WX    TMP DP  RH WIND       PRES   REMARKS
WAUSAU         CLOUDY    78  59  51 NE7       30.03S
MOSINEE        MOSUNNY   81  59  47 E5        30.05F HX  81
MARSHFIELD     SUNNY     82  58  43 NE9       30.04S HX  82
STEVENS POINT  CLOUDY    78  58  50 E7        30.04S
WAUPACA        SUNNY     85  56  37 E7        30.03S HX  84
WAUTOMA        MOSUNNY   80  62  54 NE8       30.02S HX  81
WISC RAPIDS    MOSUNNY   83  60  45 NE8       30.04S HX  83
CAMP DOUGLAS   PTSUNNY   84  61  45 N3        30.01F HX  84
$$

WIZ011>013-019>022-031-037>040-048>050-272200-
NORTHEAST WISCONSIN

CITY           SKY/WX    TMP DP  RH WIND       PRES   REMARKS
ANTIGO         CLOUDY    77  59  54 E3        30.06F
SHAWANO        MOSUNNY   81  58  44 NE5       30.02F HX  81
OCONTO         SUNNY     77  60  54 E6        30.02S
STURGEON BAY     N/A     77  61  57 MISG      30.03S
GREEN BAY      SUNNY     80  61  52 NE9       30.02F HX  81
MANITOWOC      SUNNY     75  56  51 NE12G21   30.03R
APPLETON       MOSUNNY   79  46  31 E16       30.02S
CLINTONVILLE   PTSUNNY  N/A N/A N/A E5        30.02F
OSHKOSH        SUNNY     79  59  50 NE14      30.01F HX  80
$$

WIZ032>034-041-042-053>061-272200-
SOUTHWEST WISCONSIN

CITY           SKY/WX    TMP DP  RH WIND       PRES   REMARKS
LA CROSSE      MOSUNNY   86  64  47 NW6       30.00F HX  87
SPARTA         MOSUNNY   82  60  47 NW3       30.02S HX  82
VIROQUA        MOSUNNY   79  63  57 NE7       30.03F HX  81
BOSCOBEL       MOSUNNY   86  61  42 VRB7      30.00F HX  86
PRAIRIE DU CHI SUNNY     83  56  40 N5        29.99F HX  82
PLATTEVILLE    MOSUNNY   82  64  53 NE10      30.00F HX  83
$$

WIZ056-057-062-063-064-067-068-272200-
SOUTH CENTRAL WISCONSIN

CITY           SKY/WX    TMP DP  RH WIND       PRES   REMARKS
REEDSBURG      MOSUNNY   82  63  53 N6        30.00F HX  83
BARABOO/DELLS  MOSUNNY   83  57  40 N6        30.00F HX  82
LONE ROCK      MOSUNNY   82  61  48 E7        29.99F HX  83
MINERAL POINT  SUNNY     82  59  44 NE9       30.01F HX  82
MADISON        MOSUNNY   82  61  48 N14       29.99F HX  83
MIDDLETON      MOSUNNY   83  60  44 NE7       30.01S HX  83
WATERTOWN      PTSUNNY   79  65  61 NE9       29.99S HX  81
MONROE         MOSUNNY   79  63  57 N9G16     29.99S HX  80
JANESVILLE     MOSUNNY   84  61  45 NE13      29.97F HX  84
$$

WIZ051-052-058>065-066-070>072-272200-
SOUTHEAST WISCONSIN

CITY           SKY/WX    TMP DP  RH WIND       PRES   REMARKS
MILWAUKEE      MOSUNNY   77  59  53 N20G25    29.98F
WAUKESHA       MOSUNNY   79  55  44 N12G18    30.00F
MILWAUKEE/TIMM SUNNY     79  52  38 NE15      30.00F
RACINE         SUNNY     76  64  66 N16G23    30.00S
KENOSHA        SUNNY     79  58  48 N16G25    29.98S HX  80
FOND DU LAC    SUNNY     81  58  45 NE13      30.01F HX  81
SHEBOYGAN      SUNNY     77  57  50 NE18G24   30.01F
WEST BEND      SUNNY     77  48  36 NE15G21   30.01S
JUNEAU         MOSUNNY   78  62  56 NE12      30.02S HX  80
$$

LSZ147-162-272200-
LAKE SUPERIOR

STATION/POSITION TIME  TEMP    WIND        PRES    WAVE
                       AIR SEA DIR/SP/G            HT/PER
                 (UTC) (F)     (DEG/KT/KT) (MB)    (FT/S)
W MID LAKE BUOY  2050   56 54   80/  6/  6 1018.9F   0
DEVILS ISLAND    2100   62      40/  4/  5 1019.2S
SAXON HARBOR     2040   71      30/  4/  5 1018.6F
$$

LMZ867-665-643>646-272200-
LAKE MICHIGAN

STATION/POSITION TIME  TEMP    WIND        PRES    WAVE
                       AIR SEA DIR/SP/G            HT/PER
                 (UTC) (F)     (DEG/KT/KT) (MB)    (FT/S)
CHAMBERS ISLAND  2040   74      30/  6/ 10 1016.3R
S GREEN BAY BUOY 2100   73 72   70/ 10/ 12 1016.4
N MID LAKE BUOY  2050   69 69  280/  4/  6 1016.9F   1
NORTHPORT PIER   2040   74     350/ 12/ 14 1016.6R
KEWAUNEE LAKESHO 2054   71      20/  3/  6 1016.1F
SHEBOYGAN LAKESH 2100   70      10/ 19/ 21 1015.7F
PORT WASHINGTON  2030   78      40/ 14/ 18 1016.6S
ATWATER BUOY     2009   70 69   10/ 14/ 16 1015.7R
MILWAUKEE LAKESH 2100   73      10/ 17/ 21   N/A
S MID LAKE BUOY  2050   70 71   10/ 17/ 21 1013.6F   3/ 4
KENOSHA   LAKESH 2100   73      10/ 22/ 24 1014.6
$$

TC  - TEMPERATURE IN CELSIUS
VSB - VISIBILITY IN STATUTE MILES
WCI - WIND CHILL INDEX
HX  - HEAT INDEX




USA.gov is the U.S. government's official web portal to all federal, state and local government web resources and services.